Regional Weather Roundup
Issued by NWS

Home | Current Version | Previous Version | Graphics & Text | Print | Product List | Glossary On
Versions: 1 2 3 4 5 6 7 8 9 10 11 12 13 14 15 16 17 18 19 20 21 22 23 24 25 26 27 28 29 30 31 32 33 34 35 36 37 38 39 40 41 42 43 44 45 46 47 48 49 50
000
ASUS43 KFSD 121910
RWRSD

WEATHER ROUNDUP FOR SOUTH DAKOTA
NATIONAL WEATHER SERVICE SIOUX FALLS SD
100 PM CST TUE DEC 12 2017

NOTE: "FAIR" INDICATES FEW OR NO CLOUDS BELOW 12,000 FEET WITH NO
SIGNIFICANT WEATHER AND/OR OBSTRUCTIONS TO VISIBILITY.


SDZ001>005-009-010-012>017-122000-
NORTHWEST AND NORTH CENTRAL SOUTH DAKOTA

CITY           SKY/WX    TMP DP  RH WIND       PRES   REMARKS
BUFFALO          N/A     56  20  24 W23       29.96F
FAITH            N/A     54  22  28 W20       29.99F
MOBRIDGE       SUNNY     47  27  45 W7        29.95F
$$

SDZ012>016-024>037-041>051-057-063-072>074-122000-
SOUTHWEST AND SOUTH CENTRAL SOUTH DAKOTA

CITY           SKY/WX    TMP DP  RH WIND       PRES   REMARKS
RAPID CTY ARPT SUNNY     55  20  25 CALM      30.06F
PIERRE         SUNNY     44  28  53 W10       30.01F
CUSTER         SUNNY     56   7  14 NW15G26   30.12F
ELLSWORTH AFB  SUNNY     58  16  19 SW6       30.04F
PHILIP         SUNNY     52  23  32 W14       30.04F
PINE RIDGE       N/A    N/A N/A N/A MISG      30.12F
SPEARFISH      FAIR      59  16  18 W21G30    30.08F
WINNER         FAIR      54  19  25 W13       30.05F
$$

SDZ004>011-016>023-039-040-122000-
NORTHEAST SOUTH DAKOTA

CITY           SKY/WX    TMP DP  RH WIND       PRES   REMARKS
ABERDEEN       CLOUDY    42  29  59 SW10      29.97F
WATERTOWN      SUNNY     36  29  75 SW16      29.97F
BROOKINGS      CLOUDY    36  27  69 W15       30.01F
SISSETON         N/A     40  30  67 SW12      29.93F
$$

SDZ017-020-022-023-036>040-048>070-122000-
SOUTHEAST SOUTH DAKOTA

CITY           SKY/WX    TMP DP  RH WIND       PRES   REMARKS
SIOUX FALLS    CLOUDY    35  28  75 SW9       30.07F WCI  28
HURON          MOSUNNY   44  29  55 MISG      30.02F
CHAMBERLAIN    SUNNY     48  28  46 SW9       30.05F
MITCHELL       CLOUDY    41  30  65 SW12      30.07F
YANKTON        SUNNY     40  28  62 SW9       30.10F
$$

ABBREVIATIONS USED IN REMARKS
   TC - TEMPERATURE IN CELSIUS
  WCI - WIND CHILL INDEX
   HX - HEAT INDEX
  VSB - VISIBILITY





USA.gov is the U.S. government's official web portal to all federal, state and local government web resources and services.